Weather History for Warroad, MN

Change the Weather History Date:

Sunday, April 13, 2014

  Actual Average Record
Temperature  
Mean Temperature 27 °F -  
Max Temperature 33 °F 46 °F 71 °F (1976)
Min Temperature 21 °F 26 °F -10 °F (1950)
Degree Days  
Heating Degree Days 38    
Moisture  
Dew Point 20 °F    
Average Humidity 72    
Maximum Humidity 93    
Minimum Humidity 47    
Precipitation  
Precipitation 0.00 in - - ()
Sea Level Pressure  
Sea Level Pressure 30.02 in    
Wind  
Wind Speed 14 mph (NW)    
Max Wind Speed 24 mph    
Max Gust Speed 32 mph    
Visibility 10 miles    
Events      
Averages and records for this station are not official NWS values.
T = Trace of Precipitation, MM = Missing Value Source: NWS Daily Summary

Daily Weather History Graph

Daily Weather History Graph

Search for Another Location

Airport:

Trip Planner

Search our weather history database for the weather conditions in past years. The results will help you decide how hot, cold, wet, or windy it might be!

Date:

Astronomy

Apr. 13, 2014 Rise Set
Actual Time 6:34 AM CDT 8:10 PM CDT
Civil Twilight 6:01 AM CDT 8:43 PM CDT
Nautical Twilight 5:20 AM CDT 9:24 PM CDT
Astronomical Twilight 4:36 AM CDT 10:08 PM CDT
Moon 6:43 PM CDT (4/13) 5:42 AM CDT (4/13)
Length of Visible Light 14h 42m
Length of Day
13h 36m
Waxing Gibbous, 97% of the Moon is Illuminated
Apr 13
Waxing Gibbous
Apr 15
Full
Apr 22
Last Quarter
Apr 29
New
May 6
First Quarter

Hourly Weather History & Observations

Time (CDT) Temp. Windchill Dew Point Humidity Pressure Visibility Wind Dir Wind Speed Gust Speed Precip Events Conditions
12:14 AM 33.8 °F 25.3 °F 28.4 °F 81% 29.82 in 7.0 mi West 11.5 mph 17.3 mph N/A   Overcast
12:34 AM 33.8 °F 25.8 °F 28.4 °F 81% 29.82 in 7.0 mi West 10.4 mph - N/A   Overcast
12:54 AM 32.0 °F 23.0 °F 28.4 °F 87% 29.83 in 7.0 mi West 11.5 mph 17.3 mph N/A   Overcast
1:14 AM 32.0 °F 23.6 °F 28.4 °F 87% 29.83 in 7.0 mi West 10.4 mph - N/A   Overcast
1:34 AM 32.0 °F 23.0 °F 28.4 °F 87% 29.82 in 10.0 mi West 11.5 mph 20.7 mph N/A   Overcast
1:54 AM 32.0 °F 22.1 °F 28.4 °F 87% 29.83 in 10.0 mi West 13.8 mph 19.6 mph N/A   Overcast
2:14 AM 32.0 °F 23.0 °F 28.4 °F 87% 29.83 in 10.0 mi West 11.5 mph 17.3 mph N/A   Overcast
2:34 AM 30.2 °F 20.2 °F 28.4 °F 93% 29.83 in 10.0 mi West 12.7 mph 18.4 mph N/A   Overcast
2:54 AM 30.2 °F 20.8 °F 28.4 °F 93% 29.83 in 10.0 mi West 11.5 mph 18.4 mph N/A   Overcast
3:14 AM 30.2 °F 20.8 °F 28.4 °F 93% 29.83 in 10.0 mi West 11.5 mph 17.3 mph N/A   Overcast
3:34 AM 30.2 °F 20.2 °F 28.4 °F 93% 29.84 in 10.0 mi West 12.7 mph 21.9 mph N/A   Overcast
3:54 AM 30.2 °F 19.3 °F 26.6 °F 86% 29.86 in 10.0 mi West 15.0 mph 19.6 mph N/A   Overcast
4:14 AM 30.2 °F 18.5 °F 26.6 °F 86% 29.86 in 10.0 mi WNW 17.3 mph 21.9 mph N/A   Overcast
4:34 AM 30.2 °F 19.8 °F 26.6 °F 86% 29.87 in 10.0 mi WNW 13.8 mph 20.7 mph N/A   Overcast
4:54 AM 28.4 °F 17.5 °F 26.6 °F 93% 29.89 in 10.0 mi WNW 13.8 mph 20.7 mph N/A   Overcast
5:14 AM 28.4 °F 17.0 °F 24.8 °F 86% 29.90 in 5.0 mi WNW 15.0 mph 19.6 mph N/A   Overcast
5:34 AM 28.4 °F 17.5 °F 24.8 °F 86% 29.91 in 7.0 mi West 13.8 mph 19.6 mph N/A   Overcast
5:54 AM 28.4 °F 16.6 °F 24.8 °F 86% 29.92 in 10.0 mi WNW 16.1 mph 24.2 mph N/A   Overcast
6:14 AM 28.4 °F 18.0 °F 24.8 °F 86% 29.93 in 10.0 mi WNW 12.7 mph 18.4 mph N/A   Overcast
6:34 AM 26.6 °F 15.2 °F 24.8 °F 93% 29.94 in 10.0 mi West 13.8 mph 19.6 mph N/A   Overcast
6:54 AM 26.6 °F 15.7 °F 24.8 °F 93% 29.94 in 10.0 mi WNW 12.7 mph 19.6 mph N/A   Overcast
7:14 AM 26.6 °F 14.3 °F 23.0 °F 86% 29.95 in 10.0 mi West 16.1 mph 24.2 mph N/A   Overcast
7:34 AM 26.6 °F 13.4 °F 23.0 °F 86% 29.96 in 10.0 mi WNW 18.4 mph 25.3 mph N/A   Overcast
8:14 AM 26.6 °F 15.7 °F 21.2 °F 80% 30.00 in 10.0 mi West 12.7 mph 16.1 mph N/A   Overcast
8:34 AM 26.6 °F 13.1 °F 21.2 °F 80% 29.99 in 10.0 mi WNW 19.6 mph 25.3 mph N/A   Overcast
8:54 AM 26.6 °F 14.7 °F 21.2 °F 80% 30.00 in 10.0 mi WNW 15.0 mph 27.6 mph N/A   Overcast
9:14 AM 26.6 °F 13.8 °F 21.2 °F 80% 30.00 in 10.0 mi WNW 17.3 mph 24.2 mph N/A   Overcast
9:34 AM 26.6 °F 13.1 °F 21.2 °F 80% 30.00 in 10.0 mi WNW 19.6 mph 24.2 mph N/A   Overcast
9:54 AM 26.6 °F 13.4 °F 21.2 °F 80% 30.02 in 10.0 mi WNW 18.4 mph 24.2 mph N/A   Overcast
10:34 AM 26.6 °F 13.1 °F 21.2 °F 80% 30.03 in 10.0 mi NW 19.6 mph 27.6 mph N/A   Overcast
10:54 AM 26.6 °F 13.1 °F 21.2 °F 80% 30.03 in 10.0 mi NW 19.6 mph 31.1 mph N/A   Overcast
11:14 AM 28.4 °F 15.1 °F 21.2 °F 74% 30.03 in 10.0 mi NW 20.7 mph 26.5 mph N/A   Mostly Cloudy
11:34 AM 28.4 °F 15.1 °F 21.2 °F 74% 30.04 in 10.0 mi NW 20.7 mph 28.8 mph N/A   Mostly Cloudy
11:54 AM 26.6 °F 11.7 °F 21.2 °F 80% 30.05 in 10.0 mi NW 24.2 mph 29.9 mph N/A   Overcast
12:13 PM 26.6 °F 11.7 °F 21.2 °F 80% 30.05 in 10.0 mi WNW 24.2 mph 32.2 mph N/A   Overcast
12:34 PM 26.6 °F 13.4 °F 21.2 °F 80% 30.06 in 10.0 mi NW 18.4 mph 28.8 mph N/A   Overcast
12:54 PM 26.6 °F 15.2 °F 19.4 °F 74% 30.06 in 10.0 mi NW 13.8 mph 26.5 mph N/A   Overcast
1:14 PM 28.4 °F 17.5 °F 21.2 °F 74% 30.06 in 10.0 mi NW 13.8 mph 25.3 mph N/A   Overcast
1:34 PM 30.2 °F 19.3 °F 21.2 °F 69% 30.06 in 10.0 mi NW 15.0 mph 21.9 mph N/A   Mostly Cloudy
1:54 PM 30.2 °F 18.5 °F 21.2 °F 69% 30.05 in 10.0 mi WNW 17.3 mph 24.2 mph N/A   Mostly Cloudy
2:14 PM 30.2 °F 19.3 °F 21.2 °F 69% 30.06 in 10.0 mi WNW 15.0 mph 24.2 mph N/A   Mostly Cloudy
2:34 PM 30.2 °F 18.9 °F 21.2 °F 69% 30.06 in 10.0 mi NW 16.1 mph 24.2 mph N/A   Overcast
2:53 PM 30.2 °F 18.5 °F 19.4 °F 64% 30.08 in 10.0 mi NW 17.3 mph 26.5 mph N/A   Mostly Cloudy
3:14 PM 30.2 °F 17.4 °F 19.4 °F 64% 30.08 in 10.0 mi NW 20.7 mph 26.5 mph N/A   Mostly Cloudy
3:34 PM 30.2 °F 19.3 °F 19.4 °F 64% 30.10 in 10.0 mi NNW 15.0 mph 23.0 mph N/A   Overcast
3:54 PM 30.2 °F 19.8 °F 19.4 °F 64% 30.11 in 10.0 mi NNW 13.8 mph 23.0 mph N/A   Overcast
4:14 PM 30.2 °F 20.2 °F 19.4 °F 64% 30.12 in 10.0 mi NW 12.7 mph 17.3 mph N/A   Overcast
4:34 PM 30.2 °F 20.2 °F 17.6 °F 60% 30.12 in 10.0 mi NNW 12.7 mph 18.4 mph N/A   Overcast
4:54 PM 30.2 °F 19.3 °F 15.8 °F 55% 30.12 in 10.0 mi North 15.0 mph 21.9 mph N/A   Mostly Cloudy
5:14 PM 30.2 °F 19.8 °F 15.8 °F 55% 30.12 in 10.0 mi NNW 13.8 mph 20.7 mph N/A   Scattered Clouds
5:34 PM 30.2 °F 20.2 °F 17.6 °F 60% 30.12 in 10.0 mi North 12.7 mph 21.9 mph N/A   Mostly Cloudy
5:54 PM 30.2 °F 19.8 °F 17.6 °F 60% 30.12 in 10.0 mi North 13.8 mph 21.9 mph N/A   Scattered Clouds
6:14 PM 30.2 °F 18.1 °F 15.8 °F 55% 30.12 in 10.0 mi NW 18.4 mph 21.9 mph N/A   Scattered Clouds
6:34 PM 30.2 °F 19.3 °F 14.0 °F 51% 30.12 in 10.0 mi NW 15.0 mph 21.9 mph N/A   Scattered Clouds
6:54 PM 30.2 °F 19.3 °F 14.0 °F 51% 30.12 in 10.0 mi NNW 15.0 mph 20.7 mph N/A   Clear
7:14 PM 28.4 °F 17.0 °F 10.4 °F 47% 30.12 in 10.0 mi NNW 15.0 mph 23.0 mph N/A   Clear
7:34 PM 28.4 °F 19.1 °F 12.2 °F 51% 30.13 in 10.0 mi NW 10.4 mph 17.3 mph N/A   Clear
7:54 PM 28.4 °F 19.1 °F 14.0 °F 55% 30.14 in 10.0 mi NNW 10.4 mph 18.4 mph N/A   Clear
8:14 PM 26.6 °F 15.2 °F 12.2 °F 55% 30.14 in 10.0 mi NNW 13.8 mph 20.7 mph N/A   Clear
8:34 PM 26.6 °F 13.4 °F 10.4 °F 51% 30.15 in 10.0 mi NNW 18.4 mph 24.2 mph N/A   Clear
8:54 PM 24.8 °F 11.9 °F 8.6 °F 50% 30.16 in 10.0 mi NNW 16.1 mph 24.2 mph N/A   Clear
9:13 PM 24.8 °F 12.9 °F 8.6 °F 50% 30.16 in 10.0 mi NNW 13.8 mph 20.7 mph N/A   Clear
9:34 PM 23.0 °F 11.1 °F 8.6 °F 54% 30.17 in 10.0 mi NW 12.7 mph 19.6 mph N/A   Clear
9:54 PM 23.0 °F 10.1 °F 8.6 °F 54% 30.16 in 10.0 mi NW 15.0 mph 20.7 mph N/A   Clear
10:14 PM 21.2 °F 9.5 °F 8.6 °F 58% 30.16 in 10.0 mi NW 11.5 mph 19.6 mph N/A   Clear
10:34 PM 21.2 °F 9.5 °F 6.8 °F 54% 30.16 in 10.0 mi NNW 11.5 mph 16.1 mph N/A   Clear
10:54 PM 21.2 °F 9.5 °F 6.8 °F 54% 30.16 in 10.0 mi NNW 11.5 mph 16.1 mph N/A   Clear
11:14 PM 21.2 °F 10.9 °F 6.8 °F 54% 30.16 in 10.0 mi NNW 9.2 mph - N/A   Clear
11:34 PM 21.2 °F 11.7 °F 6.8 °F 54% 30.17 in 10.0 mi NNW 8.1 mph - N/A   Clear
11:54 PM 21.2 °F 12.6 °F 5.0 °F 50% 30.18 in 10.0 mi NNW 6.9 mph - N/A   Clear